Weather History for KBRO - February, 2014

Change the Weather History Date:

Thursday, February 6, 2014

  Actual Average Record
Temperature  
Mean Temperature 47 °F 63 °F  
Max Temperature 56 °F 73 °F 91 °F (1914)
Min Temperature 38 °F 54 °F 27 °F (1912)
Degree Days  
Heating Degree Days 18 5  
Month to date heating degree days 60 30  
Since 1 July heating degree days 618 429  
Cooling Degree Days 0 3  
Month to date cooling degree days 9 13  
Year to date cooling degree days 30 72  
Moisture  
Dew Point 36 °F    
Average Humidity 78    
Maximum Humidity 92    
Minimum Humidity 64    
Precipitation  
Precipitation T in 0.05 in 0.63 in (1879)
Month to date precipitation T 0.29  
Year to date precipitation 0.68 1.56  
Sea Level Pressure  
Sea Level Pressure 30.29 in    
Wind  
Wind Speed 15 mph (NNW)    
Max Wind Speed 23 mph    
Max Gust Speed 31 mph    
Visibility 9 miles    
Events Rain    
T = Trace of Precipitation, MM = Missing Value Source: NWS Daily Summary

Daily Weather History Graph

Daily Weather History Graph

Search for Another Location

Airport or City:

Trip Planner

Search our weather history database for the weather conditions in past years. The results will help you decide how hot, cold, wet, or windy it might be!

Date:

Astronomy

Feb. 06, 2014 Rise Set
Actual Time 7:10 AM CST 6:16 PM CST
Civil Twilight 6:47 AM CST 6:40 PM CST
Nautical Twilight 6:19 AM CST 7:08 PM CST
Astronomical Twilight 5:52 AM CST 7:35 PM CST
Moon 11:51 AM CST 12:28 AM CST
Length of Visible Light 11h 53m
Length of Day
11h 05m
Waxing Crescent, 49% of the Moon is Illuminated
Feb 6
Waxing Crescent
Feb 6
First Quarter
Feb 14
Full
Feb 22
Last Quarter
Mar 1
New

Hourly Weather History & Observations

Time (CST) Temp. Windchill Dew Point Humidity Pressure Visibility Wind Dir Wind Speed Gust Speed Precip Events Conditions
12:53 AM 53.1 °F - 46.9 °F 80% 30.23 in 10.0 mi North 13.8 mph 23.0 mph N/A   Overcast
1:29 AM 51.8 °F - 44.6 °F 76% 30.23 in 10.0 mi North 17.3 mph 25.3 mph N/A   Overcast
1:53 AM 51.1 °F - 44.1 °F 77% 30.22 in 10.0 mi North 15.0 mph 25.3 mph N/A   Overcast
2:33 AM 50.0 °F - 42.8 °F 76% 30.21 in 10.0 mi North 11.5 mph 27.6 mph N/A   Overcast
2:53 AM 50.0 °F - 43.0 °F 77% 30.21 in 10.0 mi North 15.0 mph 23.0 mph N/A   Overcast
3:07 AM 48.2 °F - 42.8 °F 82% 30.21 in 10.0 mi North 12.7 mph 23.0 mph N/A   Overcast
3:53 AM 48.0 °F - 42.1 °F 80% 30.22 in 10.0 mi North 12.7 mph 25.3 mph N/A   Overcast
4:53 AM 48.0 °F - 41.0 °F 77% 30.22 in 10.0 mi North 16.1 mph 27.6 mph N/A   Overcast
5:49 AM 44.6 °F 38.1 °F 39.2 °F 81% 30.24 in 10.0 mi North 13.8 mph 26.5 mph N/A   Overcast
5:53 AM 45.0 °F 37.9 °F 39.0 °F 80% 30.25 in 10.0 mi North 16.1 mph 26.5 mph N/A   Overcast
6:53 AM 42.1 °F 34.5 °F 37.0 °F 82% 30.29 in 10.0 mi NNW 15.0 mph 26.5 mph N/A   Overcast
7:39 AM 39.2 °F 30.5 °F 37.4 °F 93% 30.31 in 10.0 mi NNW 16.1 mph 26.5 mph 0.00 in Rain Light Rain
7:53 AM 39.9 °F 31.4 °F 37.0 °F 89% 30.32 in 10.0 mi NNW 16.1 mph 25.3 mph 0.00 in Rain Light Rain
8:25 AM 39.2 °F 30.2 °F 37.4 °F 93% 30.33 in 5.0 mi NNW 17.3 mph 25.3 mph 0.00 in Rain Light Rain
8:53 AM 37.9 °F 28.9 °F 36.0 °F 93% 30.32 in 5.0 mi North 16.1 mph 28.8 mph 0.00 in Rain Light Rain
9:53 AM 37.9 °F 28.9 °F 36.0 °F 93% 30.36 in 8.0 mi NNW 16.1 mph 28.8 mph N/A   Overcast
10:53 AM 37.9 °F 29.2 °F 35.1 °F 89% 30.35 in 8.0 mi NNW 15.0 mph 25.3 mph N/A   Overcast
11:53 AM 37.9 °F 28.9 °F 35.1 °F 89% 30.35 in 3.0 mi NNW 16.1 mph 24.2 mph 0.00 in   Overcast
12:10 PM 37.4 °F 27.8 °F 33.8 °F 87% 30.34 in 10.0 mi NNW 17.3 mph 28.8 mph N/A   Overcast
12:53 PM 39.0 °F 29.0 °F 34.0 °F 82% 30.32 in 5.0 mi NNW 20.7 mph 27.6 mph N/A   Haze
1:53 PM 39.9 °F 32.1 °F 33.1 °F 77% 30.30 in 10.0 mi NNW 13.8 mph 23.0 mph N/A   Overcast
2:53 PM 37.9 °F 27.3 °F 33.1 °F 83% 30.30 in 10.0 mi NNW 21.9 mph 28.8 mph N/A   Overcast
3:53 PM 37.9 °F 28.5 °F 32.0 °F 79% 30.29 in 10.0 mi NNW 17.3 mph 28.8 mph N/A   Overcast
4:18 PM 37.4 °F 27.2 °F 32.0 °F 81% 30.30 in 10.0 mi NNW 19.6 mph 26.5 mph N/A   Overcast
4:53 PM 39.0 °F 30.3 °F 30.0 °F 70% 30.30 in 10.0 mi NNW 16.1 mph 24.2 mph N/A   Overcast
5:53 PM 39.0 °F 29.9 °F 28.9 °F 67% 30.30 in 10.0 mi NNW 17.3 mph 23.0 mph N/A   Overcast
6:53 PM 39.0 °F 30.6 °F 28.9 °F 67% 30.30 in 10.0 mi NNW 15.0 mph 23.0 mph N/A   Overcast
7:53 PM 39.9 °F 32.5 °F 28.9 °F 65% 30.31 in 10.0 mi NNW 12.7 mph 21.9 mph N/A   Overcast
8:53 PM 39.9 °F 32.1 °F 28.9 °F 65% 30.31 in 10.0 mi NNW 13.8 mph - N/A   Overcast
9:53 PM 39.9 °F 33.4 °F 28.9 °F 65% 30.31 in 10.0 mi NNW 10.4 mph 20.7 mph N/A   Overcast
10:53 PM 39.9 °F 33.4 °F 28.9 °F 65% 30.30 in 10.0 mi NNW 10.4 mph 19.6 mph N/A   Overcast
11:53 PM 39.9 °F 32.5 °F 28.9 °F 65% 30.28 in 10.0 mi NNW 12.7 mph - N/A   Overcast